[[{"header":{"parameterUnit":"m.s-1","parameterCategory":1,"la1":30.2991,"la2":30.254,"lo1":-89.0895,"lo2":-89.0444,"dy":0.0017,"dx":0.0017,"nx":28,"ny":28,"refTime":"2025-03-11T03:00:00:Z","depth":0,"parameterNumber":2,"parameterNumberName":"U-component_of_WINDS"},"data":[0,0,0,0,0,0,0,0,0,0,0,0,0,0,0,0,0,0,0,0,0,0,0,0,0,0,0,0,0,0,0,0,0,0,0,0,0,0,0,0,0,0,0,0,0,0,0,0,0,0,0,0,0,0,0,0,0,0,1.1004,1.1004,0,1.1003,1.1003,1.1003,1.0968,1.0967,1.0967,1.0966,1.0965,1.0966,1.0967,0,0,0,0,0,0,0,0,0,0,0,0,0,1.0979,1.098,1.1004,1.1004,1.1004,1.1003,1.1003,1.1003,1.0968,1.0967,1.0966,1.0965,1.0965,1.0966,1.0967,0,0,0,0,0,0,0,0,0,0,0,0,0,1.0985,1.098,1.1004,1.0987,1.0985,1.1003,1.1003,1.1003,1.0969,1.0967,1.0966,1.0965,1.0964,1.0966,1.0967,1.1001,0,0,1.097,1.0971,0,0,0,0,0,0,0,0,1.0985,1.0986,1.099,1.0988,1.0986,1.0984,1.0993,1.1002,1.0969,1.0975,1.0966,1.0964,1.0973,1.0973,1.0976,1.1001,1.1001,1.0971,1.0971,1.0972,1.0972,0,0,0,0,0,0,0,1.0984,1.0986,1.1004,1.099,1.0988,1.098,1.0979,1.0995,1.0981,1.0974,1.0972,1.0972,1.0971,1.0975,1.0975,1.1001,1.0971,1.0972,1.0972,1.0973,1.1054,1.1056,0,0,0,0,0,0,1.0986,1.0986,1.1004,1.1004,1.0982,1.0981,1.098,1.0986,1.0981,1.0979,1.0973,1.0971,1.0973,1.0974,1.0975,1.1015,1.0972,1.0973,1.0974,1.1053,1.1055,1.1056,0,0,0,0,0,0,1.0986,1.0988,1.1004,1.0994,1.0995,1.0983,1.099,1.0987,1.099,1.098,1.0978,1.0979,1.0972,1.0974,1.0995,1.1015,1.0973,1.0975,1.1051,1.1054,1.1056,1.1096,0,0,0,0,0,0,1.0985,1.0988,1.1001,1.0994,1.0996,1.1023,1.0991,1.0988,1.0992,1.0989,1.0985,1.0983,1.0971,1.0993,1.0996,1.1016,1.0976,1.1049,1.1052,1.1055,1.1092,1.1099,1.1104,0,0,0,0,0,1.0984,1.1012,1.1001,1.1004,1.1011,1.1024,1.1025,1.1011,1.0994,1.1007,1.1,1.0983,1.1012,1.0996,1.0999,1.1019,1.1048,1.1051,1.1055,1.109,1.1098,1.1104,0,0,0,0,0,0,1.1021,1.1011,1.0999,1.1025,1.1026,1.1019,1.1034,1.102,1.1025,1.1022,1.1004,1.1004,1.1028,1.1025,1.1007,1.1052,1.1027,1.1031,1.1053,1.106,1.1066,1.1067,1.0977,0,0,0,0,0,1.1032,1.1043,1.1034,1.1058,1.1059,1.1047,1.1052,1.1041,1.1041,1.1041,1.1036,1.1037,1.1046,1.1053,1.1061,1.1092,1.1091,1.1107,1.1113,1.1118,1.1122,1.1139,1.1146,1.1067,1.1067,1.1067,0,0,1.1055,1.1051,1.1059,1.1065,1.1065,1.1077,1.1047,1.1061,1.1071,1.1043,1.1063,1.106,1.106,1.1086,1.1097,1.1085,1.1144,1.1122,1.1126,1.1127,1.1143,1.115,1.1157,1.1069,1.1069,1.1068,0,0,1.1104,1.1102,1.1122,1.1122,1.1121,1.1113,1.1118,1.1112,1.1109,1.1129,1.1108,1.1119,1.1135,1.1137,1.1139,1.1189,1.1173,1.1192,1.1223,1.124,1.1246,1.1252,1.127,1.1277,1.1196,1.1196,1.1196,0,1.1134,1.1151,1.1135,1.115,1.1154,1.1129,1.115,1.1151,1.1153,1.1156,1.1142,1.1162,1.116,1.1187,1.1199,1.1201,1.1207,1.1193,1.1247,1.1252,1.1257,1.1274,1.1281,1.1198,1.1198,1.1198,1.1197,0,1.1187,1.12,1.1217,1.1219,1.1224,1.1242,1.1229,1.1237,1.1225,1.1219,1.1239,1.1236,1.1243,1.1249,1.1238,1.1274,1.1266,1.125,1.1224,1.1267,1.1283,1.129,1.1201,1.1201,1.12,1.1199,0,0,1.126,1.1253,1.1259,1.1261,1.1258,1.1267,1.1284,1.1291,1.1299,1.1301,1.1315,1.133,1.1314,1.1317,1.1306,1.1321,1.1361,1.1302,1.1302,1.1314,1.1402,1.1415,1.1423,1.135,1.1352,1.1353,1.1402,0,1.1308,1.1337,1.1323,1.1354,1.1366,1.1342,1.1358,1.1358,1.1352,1.1361,1.1355,1.1366,1.1344,1.1346,1.1359,1.1353,1.1379,1.1349,1.1365,1.1366,1.1366,1.1432,1.1446,1.1493,1.1409,1.141,1.141,0,1.1368,1.1373,1.1405,1.14,1.1405,1.1418,1.1424,1.1433,1.1433,1.1428,1.1431,1.1417,1.1434,1.1408,1.1432,1.1413,1.1418,1.1416,1.1418,1.1419,1.1391,1.1436,1.1507,1.1515,1.142,1.1419,1.1419,0,1.1419,1.1433,1.1454,1.1456,1.1451,1.1461,1.146,1.1458,1.1463,1.1468,1.1471,1.1478,1.1482,1.1488,1.1476,1.1458,1.1502,1.1475,1.1499,1.1499,1.151,1.151,1.1584,1.1512,1.1512,1.1512,1.1512,0,1.1475,1.1495,1.1477,1.149,1.1513,1.1497,1.152,1.1516,1.1515,1.1527,1.1507,1.1519,1.1502,1.1513,1.1503,1.1525,1.1527,1.1524,1.1521,1.1526,1.1527,1.153,1.1527,1.1514,1.1513,1.1513,1.1512,0,1.1536,1.1524,1.1546,1.1539,1.1538,1.1555,1.155,1.1562,1.1555,1.1571,1.1574,1.1562,1.1574,1.1562,1.1573,1.1567,1.1596,1.1588,1.1596,1.1594,1.1619,1.1617,1.1699,1.1709,1.163,1.1631,1.1631,0,1.1572,1.1588,1.1583,1.159,1.1589,1.16,1.1606,1.159,1.1596,1.1598,1.161,1.162,1.1627,1.1646,1.1639,1.1648,1.164,1.1668,1.1642,1.1646,1.1642,1.1642,1.1643,1.1674,1.1675,1.1676,1.1677,0,1.1639,1.1633,1.1641,1.1647,1.1654,1.1658,1.1661,1.1668,1.1652,1.166,1.1671,1.1677,1.1688,1.1698,1.1704,1.1703,1.1688,1.1685,1.1691,1.1697,1.1701,1.17,1.1612,1.1683,1.1683,1.1682,1.1682,1.1682,1.169,1.1703,1.1702,1.1711,1.1712,1.1715,1.1726,1.172,1.1729,1.1737,1.1727,1.1742,1.1741,1.1748,1.1749,1.176,1.1748,1.1757,1.1759,1.1762,1.1766,1.1699,1.1761,1.1761,1.1761,1.176,1.176,0,1.1757,1.1755,1.1764,1.1768,1.1776,1.176,1.1763,1.1771,1.1783,1.1784,1.1791,1.1805,1.1815,1.1809,1.1817,1.1827,1.1821,1.183,1.183,1.183,1.1775,1.177,1.1836,1.1836,1.1836,1.1836,1.1836,1.1836,1.1792,1.1814,1.1807,1.1829,1.1826,1.184,1.1843,1.1846,1.1847,1.1862,1.187,1.1866,1.1864,1.1873,1.1881,1.1879,1.1884,1.1896,1.1892,1.1841,1.1834,1.1827,1.1821,1.1897,1.1897,1.1945,1.1946,1.1946]},{"header":{"parameterUnit":"m.s-1","parameterCategory":1,"la1":30.2991,"la2":30.254,"lo1":-89.0895,"lo2":-89.0444,"dy":0.0017,"dx":0.0017,"nx":28,"ny":28,"refTime":"2025-03-11T03:00:00:Z","depth":0,"parameterNumber":3,"parameterNumberName":"V-component_of_WINDS"},"data":[0,0,0,0,0,0,0,0,0,0,0,0,0,0,0,0,0,0,0,0,0,0,0,0,0,0,0,0,0,0,0,0,0,0,0,0,0,0,0,0,0,0,0,0,0,0,0,0,0,0,0,0,0,0,0,0,0,0,-1.2168,-1.2169,0,-1.2253,-1.2254,-1.2255,-1.2275,-1.2274,-1.2274,-1.2273,-1.2361,-1.2364,-1.2367,0,0,0,0,0,0,0,0,0,0,0,0,0,-1.2023,-1.2025,-1.2168,-1.2169,-1.217,-1.2253,-1.2254,-1.2255,-1.2275,-1.2274,-1.2274,-1.2273,-1.236,-1.2364,-1.2367,0,0,0,0,0,0,0,0,0,0,0,0,0,-1.2095,-1.2026,-1.2168,-1.219,-1.2193,-1.2253,-1.2254,-1.2256,-1.2275,-1.2274,-1.2273,-1.2273,-1.2359,-1.2364,-1.2368,-1.2412,0,0,-1.2381,-1.2383,0,0,0,0,0,0,0,0,-1.2091,-1.21,-1.2185,-1.2188,-1.2192,-1.2252,-1.2235,-1.2308,-1.2275,-1.2244,-1.2273,-1.2272,-1.2326,-1.2333,-1.2351,-1.2416,-1.242,-1.2381,-1.2384,-1.2386,-1.2387,0,0,0,0,0,0,0,-1.2086,-1.2096,-1.2202,-1.2187,-1.219,-1.2196,-1.2205,-1.2249,-1.2289,-1.2247,-1.2248,-1.2258,-1.2327,-1.2347,-1.2353,-1.2421,-1.2381,-1.2385,-1.2388,-1.239,-1.2528,-1.2529,0,0,0,0,0,0,-1.2077,-1.2092,-1.2199,-1.2204,-1.2138,-1.2199,-1.2209,-1.2234,-1.2288,-1.2296,-1.2259,-1.2259,-1.234,-1.2348,-1.2356,-1.2412,-1.2386,-1.239,-1.2392,-1.2527,-1.2529,-1.253,0,0,0,0,0,0,-1.2073,-1.2086,-1.2195,-1.2149,-1.2163,-1.2202,-1.223,-1.2236,-1.2255,-1.2297,-1.2305,-1.2271,-1.2339,-1.235,-1.2398,-1.2416,-1.2392,-1.2396,-1.2526,-1.2528,-1.2529,-1.2524,0,0,0,0,0,0,-1.2069,-1.2085,-1.2102,-1.2149,-1.2165,-1.2236,-1.2231,-1.2238,-1.2263,-1.2263,-1.2311,-1.2318,-1.2339,-1.2392,-1.2403,-1.2421,-1.2399,-1.2525,-1.2527,-1.2529,-1.2523,-1.2525,-1.2528,0,0,0,0,0,-1.2064,-1.2097,-1.2102,-1.2115,-1.2187,-1.2236,-1.2246,-1.227,-1.2264,-1.2282,-1.2309,-1.2317,-1.2412,-1.2396,-1.2409,-1.2429,-1.2524,-1.2526,-1.2528,-1.2522,-1.2525,-1.2528,0,0,0,0,0,0,-1.2051,-1.2104,-1.211,-1.2159,-1.2193,-1.224,-1.2263,-1.2272,-1.2309,-1.2308,-1.2336,-1.2347,-1.2393,-1.2416,-1.2398,-1.2475,-1.2468,-1.2473,-1.2458,-1.2462,-1.2464,-1.2458,-1.2403,0,0,0,0,0,-1.2054,-1.2089,-1.2133,-1.2172,-1.2189,-1.2223,-1.2245,-1.226,-1.2297,-1.2311,-1.2342,-1.2377,-1.2415,-1.244,-1.2477,-1.2526,-1.2537,-1.2547,-1.2549,-1.255,-1.2554,-1.2583,-1.2588,-1.2538,-1.2538,-1.2538,0,0,-1.206,-1.2093,-1.2114,-1.217,-1.2199,-1.2235,-1.2235,-1.2273,-1.23,-1.2317,-1.2365,-1.2388,-1.243,-1.2479,-1.2502,-1.2499,-1.2571,-1.2554,-1.2555,-1.2558,-1.2586,-1.2591,-1.2595,-1.2539,-1.2539,-1.2539,0,0,-1.209,-1.2118,-1.2154,-1.2182,-1.2225,-1.2247,-1.2256,-1.2301,-1.2318,-1.2365,-1.2379,-1.2412,-1.2477,-1.2506,-1.2529,-1.257,-1.2579,-1.2582,-1.2594,-1.2621,-1.2625,-1.2629,-1.2644,-1.2649,-1.2586,-1.2586,-1.2586,0,-1.2092,-1.2147,-1.2171,-1.2209,-1.2234,-1.2251,-1.2288,-1.2314,-1.2367,-1.2384,-1.238,-1.2462,-1.2491,-1.2547,-1.2557,-1.2575,-1.2586,-1.2576,-1.2622,-1.2626,-1.263,-1.2645,-1.265,-1.2586,-1.2586,-1.2586,-1.2586,0,-1.2148,-1.2186,-1.221,-1.226,-1.2288,-1.2325,-1.2355,-1.238,-1.2393,-1.2416,-1.2465,-1.25,-1.2545,-1.256,-1.2573,-1.2618,-1.2615,-1.2617,-1.261,-1.2634,-1.2649,-1.2655,-1.2586,-1.2586,-1.2586,-1.2586,0,0,-1.2172,-1.2235,-1.2244,-1.2267,-1.2315,-1.2345,-1.2383,-1.2427,-1.2448,-1.2484,-1.2517,-1.2572,-1.2573,-1.2599,-1.2616,-1.264,-1.2671,-1.2639,-1.264,-1.2644,-1.2724,-1.2723,-1.2729,-1.2677,-1.2678,-1.2679,-1.272,0,-1.2208,-1.2276,-1.2299,-1.2356,-1.2392,-1.2408,-1.2442,-1.2475,-1.2498,-1.2532,-1.2557,-1.2595,-1.2594,-1.261,-1.2635,-1.2662,-1.2688,-1.2659,-1.2709,-1.271,-1.2698,-1.2736,-1.2735,-1.2772,-1.2726,-1.2727,-1.2728,0,-1.2259,-1.2295,-1.2355,-1.24,-1.2415,-1.2445,-1.2487,-1.2519,-1.2558,-1.2572,-1.2602,-1.2617,-1.2658,-1.2648,-1.2706,-1.2686,-1.2708,-1.2724,-1.2726,-1.2732,-1.272,-1.2743,-1.2784,-1.279,-1.2737,-1.2736,-1.2735,0,-1.2271,-1.2335,-1.2379,-1.2398,-1.2451,-1.2471,-1.2494,-1.2532,-1.2557,-1.2594,-1.2611,-1.2652,-1.2675,-1.2707,-1.2733,-1.2724,-1.2788,-1.2781,-1.2802,-1.2801,-1.2815,-1.2814,-1.286,-1.2828,-1.2828,-1.2828,-1.2828,0,-1.2308,-1.2344,-1.2385,-1.2412,-1.2454,-1.248,-1.252,-1.2545,-1.2578,-1.2611,-1.2628,-1.2658,-1.2691,-1.2726,-1.2746,-1.2791,-1.2801,-1.2814,-1.2819,-1.2813,-1.2811,-1.2827,-1.2826,-1.2829,-1.2829,-1.2829,-1.2829,0,-1.2328,-1.2357,-1.2406,-1.2452,-1.2465,-1.2493,-1.2533,-1.256,-1.2583,-1.2625,-1.2636,-1.2673,-1.2715,-1.2744,-1.2797,-1.2811,-1.286,-1.2864,-1.2846,-1.2849,-1.2869,-1.2867,-1.2928,-1.2938,-1.2898,-1.2899,-1.2899,0,-1.2351,-1.2379,-1.2428,-1.2451,-1.2474,-1.2511,-1.2536,-1.2564,-1.259,-1.2636,-1.2658,-1.2701,-1.2737,-1.2803,-1.2835,-1.2876,-1.2883,-1.2901,-1.2889,-1.2882,-1.2883,-1.2881,-1.2885,-1.2903,-1.2903,-1.2903,-1.2904,0,-1.2387,-1.24,-1.2436,-1.2477,-1.2507,-1.2541,-1.2575,-1.2593,-1.2627,-1.2656,-1.2698,-1.2726,-1.2781,-1.2824,-1.2869,-1.2893,-1.2904,-1.2907,-1.2915,-1.2908,-1.2897,-1.2904,-1.2852,-1.2906,-1.2906,-1.2905,-1.2905,-1.2905,-1.241,-1.2436,-1.2474,-1.2514,-1.2542,-1.2574,-1.2602,-1.2629,-1.2665,-1.2712,-1.2726,-1.2771,-1.281,-1.287,-1.2895,-1.2931,-1.293,-1.294,-1.2943,-1.2945,-1.2945,-1.2891,-1.2939,-1.2939,-1.2939,-1.2939,-1.2939,0,-1.2447,-1.2473,-1.2509,-1.2557,-1.2588,-1.2596,-1.2634,-1.266,-1.2699,-1.2734,-1.2769,-1.2818,-1.286,-1.2895,-1.2938,-1.296,-1.2967,-1.2971,-1.2969,-1.2975,-1.2944,-1.2933,-1.2965,-1.2965,-1.2965,-1.2965,-1.2965,-1.2965,-1.2471,-1.2515,-1.2533,-1.2592,-1.2618,-1.2661,-1.2683,-1.2712,-1.274,-1.2795,-1.2829,-1.2852,-1.2887,-1.2933,-1.2972,-1.2981,-1.2997,-1.2999,-1.301,-1.298,-1.2977,-1.2974,-1.2965,-1.3002,-1.3003,-1.3039,-1.3039,-1.3039]}]]